Regional Weather Roundup
Issued by NWS

Home | Current Version | Previous Version | Text Only | Print | Product List | Glossary On
Versions: 1 2 3 4 5 6 7 8 9 10 11 12 13 14 15 16 17 18 19 20 21 22 23 24 25 26 27 28 29 30 31 32 33 34 35 36 37 38 39 40 41 42 43 44 45 46 47 48 49 50
000
ASUS43 KMPX 230601
RWRMN
WEATHER ROUNDUP FOR MINNESOTA
NATIONAL WEATHER SERVICE TWIN CITIES/CHANHASSEN MN
1200 AM CST TUE JAN 23 2018


NOTE: "FAIR" INDICATES FEW OR NO CLOUDS BELOW 12,000 FEET WITH NO
SIGNIFICANT WEATHER AND/OR OBSTRUCTIONS TO VISIBILITY. N/A MEANS
CURRENT SKY AND/OR WEATHER CONDITIONS ARE NOT AVAILABLE.

MNZ060>063-068>070-230700-
   Twin Cities Metro

CITY           SKY/WX    TMP DP  RH WIND       PRES   REMARKS
TWIN CITIES    FLURRIES  26  22  84 N10       29.82R WCI  16
6HR MIN TEMP:  26; 6HR MAX TEMP:  27; 6HR PCP:  0.51;

ST PAUL        MIX PCPN  26  20  77 N13G22    29.83S WCI  15
CRYSTAL        CLOUDY    26  17  68 N18G24    29.83R WCI  13
BLAINE         CLOUDY    27  21  80 N18       29.83R WCI  13
LAKEVILLE      CLOUDY    25  23  93 N15       29.81R WCI  12
EDEN PRAIRIE   CLOUDY    28  20  71 N14       29.81R WCI  17
6HR MIN TEMP:  27; 6HR MAX TEMP:  28; 6HR PCP:  0.01;

SOUTH ST PAUL  FAIR      27  22  80 N15G22    29.81S WCI  15
LAKE ELMO      CLOUDY    27  23  86 N12G21    29.82R WCI  16
$$
MNZ001>005-007-008-013>017-022>024-027-028-230700-
   Northwest Minnesota

CITY           SKY/WX    TMP DP  RH WIND       PRES   REMARKS
BEMIDJI        CLOUDY    20  16  84 N7        29.98S WCI  11
HALLOCK        CLOUDY    21  16  79 CALM      30.07S
ROSEAU         CLOUDY    19  14  79 NE3       30.06S
WARROAD        CLOUDY    18  14  86 CALM      30.06S
CROOKSTON      MOCLDY    21  18  86 N6        30.07S WCI  14
FOSSTON        CLOUDY    19  16  86 N8        30.02S WCI   9
DETROIT LAKES  CLOUDY    23  19  86 N5        29.99S WCI  17
MOORHEAD       CLOUDY    23  18  80 N12       30.04S WCI  12
PARK RAPIDS    CLOUDY    21  16  81 N10G18    29.95S WCI  10
MAHNOMEN       CLOUDY    21  18  87 N9        30.00S WCI  11
$$
MNZ006-009>011-018-025>026-230700-
   North Central Minnesota

CITY           SKY/WX    TMP DP  RH WIND       PRES   REMARKS
BAUDETTE       CLOUDY    17  12  80 N12       30.02S WCI   4
FLAG ISLAND    CLOUDY    16  10  79 NE8       30.05S WCI   5
INTL FALLS     MOCLDY    13   7  77 N9        30.00F WCI   1
6HR MIN TEMP:  13; 6HR MAX TEMP:  19;

WASKISH        CLOUDY    18  16  93 N6        30.01S WCI   9
BIG FORK       FAIR      14  10  85 N3        29.96S
LONGVILLE      FAIR      21  16  79 N6        29.94S WCI  14
GRAND RAPIDS   FAIR      17  13  84 N8        29.94S WCI   7
CRANE LAKE     FAIR       7   5  92 N5        30.01S WCI  -2
ORR            FAIR       9   5  85 CALM      29.94S
COOK           CLOUDY    10   7  85 N5        29.94F WCI   2
WALKER         CLOUDY    20  16  81 NE9       29.96S WCI  10
$$
MNZ012-019>021-037-230700-
   Northeast Minnesota

CITY           SKY/WX    TMP DP  RH WIND       PRES   REMARKS
DULUTH         FAIR      15   9  76 N10       29.85S WCI   2
6HR MIN TEMP:  15; 6HR MAX TEMP:  23;

HIBBING        MOCLDY    12   9  87 N12       29.91S WCI  -2
EVELETH        FAIR      12   7  79 N6        29.91S WCI   3
DULUTH HARBOR  FAIR      21  18  86 N20       29.90S WCI   6
TWO HARBORS    FAIR      16  10  79 N3        29.85S
SILVER BAY     FAIR      14   9  79 CALM      29.85S
GRAND MARAIS     N/A     16   8  71 SE9       29.86R WCI   4
G MARAIS ARPRT MOCLDY     5  -2  72 N15G21    29.79R WCI -13
$$
MNZ029>031-032-039>041-046>048-054>057-064-230700-
   West Central Minnesota

CITY           SKY/WX    TMP DP  RH WIND       PRES   REMARKS
FERGUS FALLS   CLOUDY    23  18  80 N8        29.99R WCI  14
MORRIS         CLOUDY    25  19  80 N12       29.96R WCI  14
ALEXANDRIA     CLOUDY    23  18  81 N15       29.94R WCI  10
ELBOW LAKE     CLOUDY    23  19  83 N9        29.98R WCI  13
WADENA         CLOUDY    21  18  86 N16       29.95S WCI   7
GLENWOOD       FAIR      21  18  86 N17       29.93S WCI   7
APPLETON       CLOUDY    27  21  80 N13       29.97R WCI  16
BENSON         CLOUDY    25  19  80 NE12G18   29.97R WCI  14
ORTONVILLE     CLOUDY    25  19  80 N17       29.98R WCI  11
MADISON        CLOUDY    28  23  80 N18       29.98R WCI  16
WILLMAR        CLOUDY    25  19  80 N18G24    29.94R WCI  11
$$
MNZ033>034-036-042>043-049>051-058-059-230700-
   Central Minnesota

CITY           SKY/WX    TMP DP  RH WIND       PRES   REMARKS
ST CLOUD       MOCLDY    24  18  77 N14       29.88S WCI  12
6HR MIN TEMP:  24; 6HR MAX TEMP:  28;

SAUK CENTRE      N/A     23  17  78 N15G25    29.92R WCI  10
PAYNESVILLE    CLOUDY    25  20  80 N13G20    29.91R WCI  14
AITKIN         FAIR      19  14  79 N10       29.90S WCI   8
PINE RIVER     FAIR      19  16  86 N12G21    29.97S WCI   7
BRAINERD       FAIR      22  15  75 N12       29.92S WCI  10
STAPLES        CLOUDY    21  16  79 N8G16     29.94S WCI  12
LONG PRAIRIE   CLOUDY    23  18  80 NW17G24   29.92S WCI   9
LITTLE FALLS   FAIR      23  12  63 N9        29.91S WCI  13
LITCHFIELD     CLOUDY    27  23  86 N15       29.88R WCI  15
BUFFALO        CLOUDY    26  19  76 N15       29.87R WCI  13
MAPLE LAKE     CLOUDY    27  21  79 MISG      29.88R
HUTCHINSON     FAIR      26  21  80 N18G29    29.87R WCI  13
$$
MNZ037-044-045-052-053-230700-
   East Central Minnesota

CITY           SKY/WX    TMP DP  RH WIND       PRES   REMARKS
PRINCETON      CLOUDY    27  18  69 N13G18    29.86S WCI  16
MORA           CLOUDY    25  18  74 N7        29.88R WCI  17
CAMBRIDGE        N/A     27  16  63 N15       29.86R WCI  15
RUSH CITY      CLOUDY    24  17  73 N17G23    29.85S WCI  10
MOOSE LAKE     FAIR      19  14  79 N14       29.86S WCI   6
HINCKLEY       FAIR      23  18  80 N13       29.85F WCI  11
CLOQUET        FAIR      16  10  79 N15       29.87S WCI   1
MCGREGOR       FAIR      21  16  79 N10       29.90S WCI  10
$$
MNZ071>073-080-081-089-090-097-098-230700-
   Southwest Minnesota

CITY           SKY/WX    TMP DP  RH WIND       PRES   REMARKS
MONTEVIDEO     CLOUDY    25  19  80 NE17      29.95R WCI  11
GRANITE FALLS  CLOUDY    28  23  79 NW16G25   29.95R WCI  17
CANBY          CLOUDY    26  23  87 N13G18    29.98R WCI  15
MARSHALL       CLOUDY    26  21  81 N16       29.94R WCI  14
REDWOOD FALLS  CLOUDY    24  20  84 N14G22    29.89R WCI  12
OLIVIA         CLOUDY    27  23  86 N17       29.89S WCI  14
PIPESTONE      CLOUDY    23  21  93 N12G20    29.91S WCI  12
WINDOM         CLOUDY    27  12  54 NW25      29.87R WCI  11
WORTHINGTON    CLOUDY    25  23  92 N25G31    29.88R WCI   9
JACKSON        CLOUDY    27  23  86 N17G28    29.85R WCI  14
TRACY          CLOUDY    27  23  87 N21G28    29.91R WCI  13
SLAYTON        CLOUDY    25  22  90 N23G31    29.89S WCI   9
$$
MNZ065>067-074>077-082>085-091>093-230700-
   South Central Minnesota

CITY           SKY/WX    TMP DP  RH WIND       PRES   REMARKS
MANKATO        FLURRIES  26  23  88 N21       29.83R WCI  12
NEW ULM        CLOUDY    27  19  74 N14       29.87R WCI  15
ST JAMES       CLOUDY    27  23  86 NW17G25   29.87R WCI  14
FAIRMONT       LGT SNOW  27  25  92 N24       29.83R FOG     WCI  12
FARIBAULT      LGT SNOW  27  23  86 N16G22    29.79S WCI  14
OWATONNA         N/A     27  25  93 N23       29.76R WCI  12
WASECA         CLOUDY    27  23  86 N23       29.79R WCI  12
ALBERT LEA     LGT SNOW  27  23  86 N17G23    29.73R WCI  14
$$
MNZ078>079-086>088-094>096-230700-
   Southeast Minnesota

CITY           SKY/WX    TMP DP  RH WIND       PRES   REMARKS
ROCHESTER      LGT SNOW  24  23  96 N26G35    29.69R FOG     WCI   8
6HR MIN TEMP:  24; 6HR MAX TEMP:  30; 6HR PCP:  0.01;

RED WING       LGT SNOW  27  21  80 N14       29.77R WCI  15
STANTON        LGT SNOW  27  24  87 N17       29.78R WCI  14
DODGE CENTER   LGT SNOW  25  21  86 N20G25    29.71S WCI  11
WINONA         LGT SNOW  30  27  86 N9        29.68R WCI  22
AUSTIN           N/A     25  21  86 VRB16G24  29.70R WCI  12
PRESTON        FLURRIES  26  24  90 N17G23    29.66R WCI  13
$$
ABBREVIATIONS USED IN REMARKS
   TC - TEMPERATURES IN CELSIUS
  WCI - WIND CHILL INDEX
   HX - HEAT INDEX
  VSB - VISIBILITY
$$




USA.gov is the U.S. government's official web portal to all federal, state and local government web resources and services.